This is the latest recevied weather packets stored in our database for station/object N5CSU. If no packets are shown the sender has not sent any weather packets the latest 10 day(s).
| Time | Temp. | Humidity | Pressure | Rain* | Wind** | Luminosity | Snow |
|---|---|---|---|---|---|---|---|
| 1788628718 | 35° C | 47% | 1014.6 hPa | 0 mm | - | 103 W/m² | - |
| 1788628415 | 35.56° C | 50% | 1014.8 hPa | 0 mm | - | 178 W/m² | - |
| 1788628111 | 35° C | 48% | 1014.8 hPa | 0 mm | - | 146 W/m² | - |
| 1788627807 | 35° C | 50% | 1014.7 hPa | 0 mm | - | 184 W/m² | - |
| 1788627506 | 35° C | 51% | 1015 hPa | 0 mm | - | 205 W/m² | - |
| 1788627201 | 35° C | 50% | 1014.9 hPa | 0 mm | - | 257 W/m² | - |
| 1788626901 | 35° C | 50% | 1014.9 hPa | 0 mm | - | 285 W/m² | - |
| 1788626595 | 34.44° C | 51% | 1014.9 hPa | 0 mm | - | 355 W/m² | - |
| 1788626291 | 35.56° C | 49% | 1015.1 hPa | 0 mm | - | 328 W/m² | - |
| 1788625987 | 34.44° C | 51% | 1015 hPa | 0 mm | - | 443 W/m² | - |
| 1788625684 | 34.44° C | 52% | 1015 hPa | 0 mm | - | 323 W/m² | - |
| 1788625382 | 34.44° C | 53% | 1015.1 hPa | 0 mm | - | 304 W/m² | - |
| 1788625077 | 34.44° C | 52% | 1015 hPa | 0 mm | - | 293 W/m² | - |
| 1788624776 | 33.33° C | 54% | 1015 hPa | 0 mm | - | 406 W/m² | - |
| 1788624475 | 33.89° C | 55% | 1015.1 hPa | 0 mm | - | 431 W/m² | - |
| 1788624169 | 33.33° C | 55% | 1015.2 hPa | 0 mm | - | 198 W/m² | - |
| 1788623864 | 32.78° C | 53% | 1015.1 hPa | 0 mm | - | 203 W/m² | - |
| 1788623563 | 32.78° C | 59% | 1015 hPa | 0 mm | - | 390 W/m² | - |
| 1788623257 | 32.22° C | 60% | 1014.9 hPa | 0 mm | - | 393 W/m² | - |
| 1788622954 | 31.67° C | 64% | 1014.9 hPa | 0 mm | - | 369 W/m² | - |
| 1788622648 | 31.67° C | 64% | 1014.8 hPa | 0 mm | - | 19 W/m² | - |
| 1788622344 | 31.67° C | 66% | 1015.1 hPa | 0 mm | - | 18 W/m² | - |
| 1788622039 | 31.11° C | 67% | 1015.1 hPa | 0 mm | - | 18 W/m² | - |
| 1788621733 | 31.11° C | 68% | 1015 hPa | 0 mm | - | 17 W/m² | - |
| 1788621433 | 31.11° C | 68% | 1015.1 hPa | 0 mm | - | 17 W/m² | - |
* Rain latest hour (hover to see other rain measurements)
** Current wind speed in m/s (hover to see current wind gust speed)